Regional Weather Roundup
Issued by NWS

Home | Current Version | Previous Version | Text Only | Print | Product List | Glossary On
Versions: 1 2 3 4 5 6 7 8 9 10 11 12 13 14 15 16 17 18 19 20 21 22 23 24 25 26 27
000
ASUS42 KKEY 240810
RWRKEY

FLORIDA REGIONAL WEATHER ROUNDUP FOR THE FLORIDA KEYS
NATIONAL WEATHER SERVICE KEY WEST FLORIDA
300 AM EST FRI NOV 24 2017

...SOUTH FLORIDA AND THE KEYS...

CITY           SKY/WX    TMP DP  RH WIND       PRES   REMARKS
FORT MYERS     CLOUDY    70  68  93 W6        29.82F
SW REGIONAL AP CLOUDY    69  69 100 CALM      29.82F
NAPLES         CLOUDY    71  70  96 SW3       29.81F
MIAMI          CLOUDY    72  68  87 S5        29.84S
WEST KENDALL   CLOUDY    71  68  90 S6        29.84S
HOMESTEAD      CLOUDY    71  71 100 SW3       29.84S
MARATHON       CLOUDY    75  68  78 W6        29.83F
KEY WEST INTL  PTCLDY    76  71  85 SW9       29.84F

...INTERNATIONAL WEATHER...

CITY           SKY/WX    TMP DP  RH WIND       PRES   REMARKS
NASSAU BAHAMAS MOCLDY    77  73  88 CALM      29.88R
CANCUN MEXICO  CLEAR     66  66 100 W5        29.91F
COZUMEL MEXICO CLEAR     73  55  53 NW15      29.90F

ADJACENT COASTAL WATERS...

STATION/POSITION TIME  SKY/WX   TEMP    WIND        PRES    WAVE
                                AIR SEA DIR/SP/G            HT/PER
                 (UTC)          (F)     (DEG/KT/KT) (MB)    (FT/S)
PULASKI SHOAL LI 0800            75      80/  1/  4 1010.3F
SAND KEY         0750            76                 1010.9F
LONG KEY         NOT AVBL
MOLASSES REEF    0800            77 80  310/  1/  3 1010.8S
FOWEY ROCKS      0800            76 79  230/ 11/ 12 1010.9F
Buoy 42097       0730               79                N/A     3/ 7

$$




USA.gov is the U.S. government's official web portal to all federal, state and local government web resources and services.